• In Germany
  • List of Countries
  • For 7 days
  • Water Temperature
  • Satellite Maps
  • Weather Map
  • Weather Widgets
  • user-avatar
    Login

    Hourly Weather Artashat

    Today, 19 August, Saturday

    Time Temperature Precipitation Wind Pressure Humidity
    00:00 +21°C° 0 mm 1 mps 605 mmHg 45%
    01:00 +20°C° 0 mm 1 mps 605 mmHg 48%
    02:00 +19°C° 0 mm 1 mps 605 mmHg 50%
    03:00 +19°C° 0 mm 1 mps 605 mmHg 52%
    04:00 +19°C° 0 mm 1 mps 605 mmHg 53%
    05:00 +18°C° 0 mm 1 mps 605 mmHg 53%
    06:00 +18°C° 0 mm 1 mps 605 mmHg 54%
    07:00 +20°C° 0 mm 1 mps 606 mmHg 49%
    08:00 +21°C° 0 mm 2 mps 606 mmHg 43%
    09:00 +23°C° 0 mm 2 mps 607 mmHg 37%
    10:00 +25°C° 0 mm 2 mps 607 mmHg 34%
    11:00 +26°C° 0 mm 2 mps 607 mmHg 30%
    12:00 +27°C° 0 mm 3 mps 608 mmHg 26%
    13:00 +28°C° 0 mm 3 mps 608 mmHg 24%
    14:00 +29°C° 0 mm 3 mps 608 mmHg 23%
    15:00 +29°C° 0 mm 3 mps 608 mmHg 21%
    16:00 +29°C° 0 mm 3 mps 607 mmHg 22%
    17:00 +28°C° 0 mm 3 mps 607 mmHg 23%
    18:00 +28°C° 0 mm 3 mps 607 mmHg 24%
    19:00 +26°C° 0 mm 3 mps 607 mmHg 28%
    20:00 +24°C° 0 mm 2 mps 606 mmHg 33%
    21:00 +23°C° 0 mm 2 mps 606 mmHg 38%
    22:00 +21°C° 0 mm 2 mps 606 mmHg 41%
    23:00 +20°C° 0 mm 2 mps 606 mmHg 43%

    Tomorrow, 20 August, Sunday

    Time Temperature Precipitation Wind Pressure Humidity
    00:00 +19°C° 0 mm 2 mps 606 mmHg 46%
    01:00 +19°C° 0 mm 2 mps 606 mmHg 48%
    02:00 +19°C° 0 mm 1 mps 605 mmHg 50%
    03:00 +18°C° 0 mm 1 mps 605 mmHg 52%
    04:00 +18°C° 0 mm 1 mps 605 mmHg 53%
    05:00 +18°C° 0 mm 1 mps 605 mmHg 53%
    06:00 +18°C° 0 mm 1 mps 605 mmHg 53%
    07:00 +20°C° 0 mm 1 mps 606 mmHg 47%
    08:00 +21°C° 0 mm 2 mps 606 mmHg 40%
    09:00 +23°C° 0 mm 2 mps 607 mmHg 34%
    10:00 +25°C° 0 mm 2 mps 607 mmHg 30%
    11:00 +26°C° 0 mm 2 mps 607 mmHg 27%
    12:00 +28°C° 0 mm 3 mps 607 mmHg 24%
    13:00 +28°C° 0 mm 3 mps 607 mmHg 23%
    14:00 +29°C° 0 mm 3 mps 607 mmHg 21%
    15:00 +30°C° 0 mm 3 mps 607 mmHg 20%
    16:00 +29°C° 0 mm 3 mps 607 mmHg 20%
    17:00 +28°C° 0 mm 3 mps 607 mmHg 21%
    18:00 +28°C° 0 mm 3 mps 606 mmHg 22%
    19:00 +26°C° 0 mm 3 mps 606 mmHg 25%
    20:00 +24°C° 0 mm 2 mps 606 mmHg 28%
    21:00 +21°C° 0 mm 2 mps 606 mmHg 31%
    22:00 +21°C° 0 mm 2 mps 605 mmHg 33%
    23:00 +20°C° 0 mm 2 mps 605 mmHg 35%

    Day after tomorrow, 21 August, Monday

    Time Temperature Precipitation Wind Pressure Humidity
    00:00 +20°C° 0 mm 1 mps 605 mmHg 36%
    01:00 +19°C° 0 mm 1 mps 605 mmHg 38%
    02:00 +19°C° 0 mm 1 mps 604 mmHg 40%
    03:00 +18°C° 0 mm 1 mps 604 mmHg 42%
    04:00 +18°C° 0 mm 1 mps 604 mmHg 43%
    05:00 +18°C° 0 mm 1 mps 604 mmHg 44%
    06:00 +16°C° 0 mm 1 mps 604 mmHg 44%
    07:00 +20°C° 0 mm 1 mps 605 mmHg 38%
    08:00 +22°C° 0 mm 1 mps 605 mmHg 32%
    09:00 +24°C° 0 mm 1 mps 606 mmHg 26%
    10:00 +25°C° 0 mm 2 mps 606 mmHg 23%
    11:00 +27°C° 0 mm 2 mps 606 mmHg 20%
    12:00 +28°C° 0 mm 2 mps 607 mmHg 18%
    13:00 +29°C° 0 mm 2 mps 607 mmHg 16%
    14:00 +29°C° 0 mm 2 mps 606 mmHg 15%
    15:00 +30°C° 0 mm 2 mps 606 mmHg 13%
    16:00 +29°C° 0 mm 2 mps 606 mmHg 15%
    17:00 +28°C° 0 mm 2 mps 606 mmHg 16%
    18:00 +28°C° 0 mm 2 mps 605 mmHg 18%
    19:00 +26°C° 0 mm 2 mps 605 mmHg 21%
    20:00 +24°C° 0 mm 1 mps 605 mmHg 24%
    21:00 +22°C° 0 mm 1 mps 605 mmHg 27%
    22:00 +21°C° 0 mm 1 mps 604 mmHg 28%
    23:00 +21°C° 0 mm 1 mps 604 mmHg 29%

    22 August, Tuesday

    Time Temperature Precipitation Wind Pressure Humidity
    00:00 +20°C° 0 mm 1 mps 604 mmHg 30%
    01:00 +20°C° 0 mm 1 mps 604 mmHg 31%
    02:00 +19°C° 0 mm 1 mps 603 mmHg 32%
    03:00 +18°C° 0 mm 1 mps 603 mmHg 32%
    04:00 +18°C° 0 mm 1 mps 603 mmHg 33%
    05:00 +18°C° 0 mm 1 mps 603 mmHg 33%
    06:00 +18°C° 0 mm 1 mps 603 mmHg 34%
    07:00 +21°C° 0 mm 1 mps 604 mmHg 30%
    08:00 +23°C° 0 mm 1 mps 605 mmHg 26%
    09:00 +26°C° 0 mm 2 mps 606 mmHg 22%
    10:00 +27°C° 0 mm 2 mps 606 mmHg 20%
    11:00 +28°C° 0 mm 2 mps 606 mmHg 18%
    12:00 +30°C° 0 mm 2 mps 606 mmHg 16%
    13:00 +30°C° 0 mm 2 mps 606 mmHg 16%
    14:00 +31°C° 0 mm 2 mps 606 mmHg 15%
    15:00 +32°C° 0 mm 2 mps 606 mmHg 14%
    16:00 +31°C° 0 mm 2 mps 606 mmHg 16%
    17:00 +30°C° 0 mm 2 mps 605 mmHg 17%
    18:00 +29°C° 0 mm 2 mps 605 mmHg 18%
    19:00 +27°C° 0 mm 2 mps 605 mmHg 21%
    20:00 +26°C° 0 mm 2 mps 604 mmHg 24%
    21:00 +24°C° 0 mm 2 mps 604 mmHg 26%
    22:00 +23°C° 0 mm 2 mps 604 mmHg 28%
    23:00 +21°C° 0 mm 2 mps 604 mmHg 29%

    23 August, Wednesday

    Time Temperature Precipitation Wind Pressure Humidity
    00:00 +22°C° 0 mm 1 mps 604 mmHg 31%
    01:00 +21°C° 0 mm 1 mps 603 mmHg 32%
    02:00 +20°C° 0 mm 1 mps 603 mmHg 33%
    03:00 +20°C° 0 mm 1 mps 603 mmHg 35%
    04:00 +20°C° 0 mm 1 mps 603 mmHg 36%
    05:00 +19°C° 0 mm 1 mps 603 mmHg 37%
    06:00 +19°C° 0 mm 1 mps 604 mmHg 38%
    07:00 +21°C° 0 mm 1 mps 604 mmHg 34%
    08:00 +24°C° 0 mm 2 mps 605 mmHg 30%
    09:00 +26°C° 0 mm 2 mps 606 mmHg 25%
    10:00 +27°C° 0 mm 2 mps 606 mmHg 23%
    11:00 +29°C° 0 mm 2 mps 606 mmHg 20%
    12:00 +30°C° 0 mm 2 mps 607 mmHg 18%
    13:00 +31°C° 0 mm 3 mps 607 mmHg 16%
    14:00 +33°C° 0 mm 3 mps 607 mmHg 15%
    15:00 +33°C° 0 mm 3 mps 607 mmHg 14%
    16:00 +33°C° 0 mm 3 mps 607 mmHg 15%
    17:00 +31°C° 0 mm 3 mps 606 mmHg 16%
    18:00 +30°C° 0 mm 2 mps 606 mmHg 18%
    19:00 +28°C° 0 mm 2 mps 606 mmHg 21%
    20:00 +26°C° 0 mm 2 mps 606 mmHg 25%
    21:00 +24°C° 0 mm 2 mps 606 mmHg 29%
    22:00 +23°C° 0 mm 2 mps 606 mmHg 31%
    23:00 +21°C° 0 mm 2 mps 605 mmHg 33%

    24 August, Thursday

    Time Temperature Precipitation Wind Pressure Humidity
    00:00 +21°C° 0 mm 2 mps 605 mmHg 35%
    01:00 +20°C° 0 mm 2 mps 605 mmHg 37%
    02:00 +19°C° 0 mm 2 mps 605 mmHg 39%
    03:00 +19°C° 0 mm 2 mps 605 mmHg 42%
    04:00 +18°C° 0 mm 2 mps 605 mmHg 43%
    05:00 +18°C° 0 mm 2 mps 605 mmHg 44%
    06:00 +18°C° 0 mm 2 mps 605 mmHg 45%
    07:00 +20°C° 0 mm 2 mps 606 mmHg 39%
    08:00 +23°C° 0 mm 2 mps 607 mmHg 33%
    09:00 +25°C° 0 mm 2 mps 607 mmHg 27%
    10:00 +26°C° 0 mm 2 mps 608 mmHg 25%
    11:00 +28°C° 0 mm 2 mps 608 mmHg 22%
    12:00 +29°C° 0 mm 2 mps 608 mmHg 19%
    13:00 +30°C° 0 mm 2 mps 608 mmHg 18%
    14:00 +31°C° 0 mm 3 mps 608 mmHg 17%
    15:00 +33°C° 0 mm 3 mps 608 mmHg 15%
    16:00 +31°C° 0 mm 3 mps 608 mmHg 17%
    17:00 +30°C° 0 mm 2 mps 607 mmHg 18%
    18:00 +30°C° 0 mm 2 mps 607 mmHg 19%
    19:00 +28°C° 0 mm 2 mps 607 mmHg 23%
    20:00 +26°C° 0 mm 2 mps 607 mmHg 26%
    21:00 +24°C° 0 mm 2 mps 606 mmHg 30%
    22:00 +23°C° 0 mm 2 mps 606 mmHg 32%
    23:00 +22°C° 0 mm 1 mps 606 mmHg 33%
    Show more